BAW947L LDSP-EGLL

Flight info

Callsign BAW947L
Flight time 2h 14m
Altitude 36000
Route ZDA1W ZDA DCT ROTAR DCT BORMI DCT RESIA DCT ELMUR DCT RIPUS DCT DITON DCT HOC DCT LUL DCT RLP DCT ROTSI DCT KOTUN DCT NINAL DCT ABNUR DCT DIMAL DCT ALESO ALESO1H
Aircraft A320/M-SDE3FGIJ1KRWXY/SB1

Departure

Time 2026-05-05 07:44
Airport Split Saint Jerome Airport (LDSP)

Arrival

Time 2026-05-05 09:58
Airport London Heathrow Airport (EGLL)
Time Latitude Longitude Altitude Speed Heading
2026-05-05 07:26 43.53657 16.29752 68 ft 0 kts 94°
2026-05-05 07:35 43.53657 16.29738 62 ft 4 kts 64°
2026-05-05 07:36 43.53652 16.29704 68 ft 4 kts 87°
2026-05-05 07:36 43.53652 16.29669 68 ft 2 kts 92°
2026-05-05 07:36 43.53652 16.29661 68 ft 0 kts 92°
2026-05-05 07:40 43.53655 16.29664 61 ft 1 kts 54°
2026-05-05 07:40 43.53661 16.29660 68 ft 1 kts 340°
2026-05-05 07:40 43.53674 16.29635 59 ft 8 kts 300°
2026-05-05 07:40 43.53695 16.29538 76 ft 10 kts 271°
2026-05-05 07:41 43.53682 16.29425 80 ft 17 kts 249°
2026-05-05 07:41 43.53608 16.29282 87 ft 19 kts 232°
2026-05-05 07:41 43.53527 16.29138 87 ft 19 kts 233°
2026-05-05 07:41 43.53445 16.28988 88 ft 20 kts 232°
2026-05-05 07:42 43.53356 16.28827 86 ft 22 kts 232°
2026-05-05 07:42 43.53263 16.28663 86 ft 14 kts 232°
2026-05-05 07:42 43.53196 16.28591 87 ft 12 kts 251°
2026-05-05 07:42 43.53213 16.28578 85 ft 3 kts 17°
2026-05-05 07:43 43.53232 16.28600 86 ft 4 kts 54°
2026-05-05 07:43 43.53234 16.28606 86 ft 2 kts 55°
2026-05-05 07:43 43.53363 16.28839 87 ft 73 kts 52°
2026-05-05 07:43 43.53842 16.29699 84 ft 148 kts 52°
2026-05-05 07:44 43.54529 16.30911 687 ft 162 kts 57°
2026-05-05 07:44 43.55001 16.31725 1292 ft 167 kts 53°
2026-05-05 07:44 43.55615 16.33131 1921 ft 173 kts 86°
2026-05-05 07:44 43.55378 16.34680 2503 ft 170 kts 128°
2026-05-05 07:45 43.54424 16.35671 3060 ft 177 kts 150°
2026-05-05 07:45 43.53326 16.36481 3636 ft 180 kts 152°
2026-05-05 07:45 43.52204 16.37284 4216 ft 183 kts 153°
2026-05-05 07:45 43.51072 16.38094 4857 ft 183 kts 154°
2026-05-05 07:46 43.49938 16.38909 5409 ft 186 kts 154°
2026-05-05 07:46 43.48778 16.39747 5509 ft 187 kts 154°
2026-05-05 07:46 43.47630 16.40581 5509 ft 187 kts 154°
2026-05-05 07:46 43.46424 16.41167 5500 ft 184 kts 180°
2026-05-05 07:47 43.45225 16.40567 5527 ft 200 kts 220°
2026-05-05 07:47 43.44284 16.39006 5811 ft 221 kts 229°
2026-05-05 07:47 43.43289 16.37226 6074 ft 248 kts 229°
2026-05-05 07:47 43.42202 16.35270 6656 ft 262 kts 230°
2026-05-05 07:48 43.41089 16.33252 7474 ft 267 kts 230°
2026-05-05 07:48 43.39963 16.31212 8347 ft 269 kts 230°
2026-05-05 07:48 43.38826 16.29160 9213 ft 272 kts 231°
2026-05-05 07:48 43.37671 16.27083 10062 ft 275 kts 231°
2026-05-05 07:49 43.36471 16.24937 10473 ft 294 kts 231°
2026-05-05 07:49 43.35413 16.22418 10651 ft 320 kts 251°
2026-05-05 07:49 43.35335 16.19290 11050 ft 340 kts 281°
2026-05-05 07:49 43.36389 16.16344 11655 ft 352 kts 306°
2026-05-05 07:50 43.38177 16.14000 12328 ft 360 kts 320°
2026-05-05 07:50 43.40263 16.12055 13010 ft 364 kts 326°
2026-05-05 07:50 43.42437 16.10236 13702 ft 367 kts 326°
2026-05-05 07:50 43.44608 16.08357 14327 ft 370 kts 324°
2026-05-05 07:51 43.46737 16.06345 14951 ft 372 kts 322°
2026-05-05 07:51 43.48814 16.04209 15566 ft 374 kts 319°
2026-05-05 07:51 43.50860 16.01983 16176 ft 376 kts 317°
2026-05-05 07:51 43.52893 15.99703 16776 ft 378 kts 319°
2026-05-05 07:52 43.54937 15.97388 17333 ft 382 kts 319°
2026-05-05 07:52 43.57005 15.95048 17913 ft 386 kts 318°
2026-05-05 07:52 43.59096 15.92702 18512 ft 389 kts 319°
2026-05-05 07:52 43.61179 15.90389 19048 ft 390 kts 319°
2026-05-05 07:53 43.63303 15.88044 19616 ft 392 kts 319°
2026-05-05 07:53 43.65437 15.85694 20176 ft 393 kts 319°
2026-05-05 07:53 43.67579 15.83332 20734 ft 395 kts 319°
2026-05-05 07:53 43.69733 15.80954 21263 ft 397 kts 319°
2026-05-05 07:54 43.71891 15.78567 21773 ft 398 kts 319°
2026-05-05 07:54 43.74055 15.76164 22271 ft 400 kts 318°
2026-05-05 07:54 43.76227 15.73744 22771 ft 402 kts 318°
2026-05-05 07:54 43.78414 15.71307 23277 ft 404 kts 318°
2026-05-05 07:55 43.80604 15.68865 23771 ft 405 kts 318°
2026-05-05 07:55 43.82805 15.66408 24161 ft 407 kts 318°
2026-05-05 07:55 43.85017 15.63937 24561 ft 409 kts 317°
2026-05-05 07:55 43.87245 15.61455 24916 ft 412 kts 317°
2026-05-05 07:56 43.89492 15.58951 25283 ft 415 kts 317°
2026-05-05 07:56 43.91746 15.56434 25653 ft 417 kts 317°
2026-05-05 07:56 43.94007 15.53901 26026 ft 419 kts 318°
2026-05-05 07:56 43.96278 15.51357 26403 ft 421 kts 318°
2026-05-05 07:57 43.98565 15.48791 26776 ft 423 kts 318°
2026-05-05 07:57 44.00857 15.46215 27148 ft 425 kts 318°
2026-05-05 07:57 44.03158 15.43623 27529 ft 427 kts 318°
2026-05-05 07:57 44.05472 15.41011 27903 ft 429 kts 318°
2026-05-05 07:58 44.07787 15.38382 28268 ft 431 kts 316°
2026-05-05 07:58 44.09915 15.35455 28625 ft 430 kts 308°
2026-05-05 07:58 44.11736 15.32153 28903 ft 431 kts 302°
2026-05-05 07:58 44.13481 15.28736 29276 ft 433 kts 302°
2026-05-05 07:59 44.15224 15.25328 29780 ft 431 kts 303°
2026-05-05 07:59 44.16937 15.21978 30275 ft 430 kts 303°
2026-05-05 07:59 44.18668 15.18591 30743 ft 428 kts 303°
2026-05-05 07:59 44.20409 15.15184 31249 ft 425 kts 303°
2026-05-05 08:00 44.22116 15.11837 31750 ft 422 kts 303°
2026-05-05 08:00 44.23807 15.08516 32263 ft 419 kts 303°
2026-05-05 08:00 44.25465 15.05252 32775 ft 416 kts 302°
2026-05-05 08:00 44.27136 15.01957 33211 ft 415 kts 302°
2026-05-05 08:01 44.28822 14.98630 33672 ft 414 kts 302°
2026-05-05 08:01 44.30479 14.95355 34145 ft 412 kts 302°
2026-05-05 08:01 44.32127 14.92099 34531 ft 410 kts 302°
2026-05-05 08:01 44.33750 14.88888 34874 ft 410 kts 302°
2026-05-05 08:02 44.35415 14.85585 35170 ft 410 kts 302°
2026-05-05 08:02 44.37035 14.82364 35461 ft 411 kts 302°
2026-05-05 08:02 44.38680 14.79095 35744 ft 411 kts 302°
2026-05-05 08:02 44.40325 14.75827 35994 ft 412 kts 302°
2026-05-05 08:03 44.43650 14.69198 36059 ft 420 kts 302°
2026-05-05 08:03 44.47012 14.62486 36059 ft 421 kts 302°
2026-05-05 08:04 44.50382 14.55750 36061 ft 422 kts 302°
2026-05-05 08:04 44.53745 14.49014 36064 ft 422 kts 302°
2026-05-05 08:05 44.57103 14.42267 36065 ft 422 kts 302°
2026-05-05 08:05 44.60473 14.35485 36059 ft 423 kts 302°
2026-05-05 08:06 44.63836 14.28675 36053 ft 424 kts 302°
2026-05-05 08:06 44.67194 14.21866 36062 ft 424 kts 302°
2026-05-05 08:07 44.70565 14.15037 36061 ft 425 kts 302°
2026-05-05 08:07 44.73910 14.08249 36063 ft 425 kts 301°
2026-05-05 08:08 44.77296 14.01353 36059 ft 426 kts 301°
2026-05-05 08:08 44.80631 13.94518 36058 ft 426 kts 301°
2026-05-05 08:09 44.84011 13.87581 36064 ft 427 kts 301°
2026-05-05 08:09 44.87361 13.80712 36072 ft 427 kts 301°
2026-05-05 08:10 44.90724 13.73792 36067 ft 428 kts 301°
2026-05-05 08:10 44.94080 13.66858 36067 ft 429 kts 301°
2026-05-05 08:11 44.97449 13.59904 36071 ft 429 kts 301°
2026-05-05 08:11 45.00814 13.52950 36047 ft 427 kts 301°
2026-05-05 08:12 45.04154 13.45992 36049 ft 428 kts 301°
2026-05-05 08:12 45.07492 13.39023 36044 ft 428 kts 301°
2026-05-05 08:13 45.10842 13.32035 36035 ft 429 kts 301°
2026-05-05 08:13 45.14188 13.25031 36031 ft 429 kts 301°
2026-05-05 08:14 45.17512 13.18052 36047 ft 430 kts 301°
2026-05-05 08:14 45.20856 13.11014 36036 ft 430 kts 300°
2026-05-05 08:15 45.24197 13.03953 36037 ft 431 kts 300°
2026-05-05 08:15 45.27512 12.96871 36036 ft 430 kts 299°
2026-05-05 08:16 45.30685 12.89655 36039 ft 430 kts 298°
2026-05-05 08:16 45.33790 12.82379 36045 ft 430 kts 297°
2026-05-05 08:17 45.36902 12.75109 36038 ft 431 kts 298°
2026-05-05 08:17 45.40049 12.67852 36038 ft 431 kts 298°
2026-05-05 08:18 45.43181 12.60624 36037 ft 431 kts 298°
2026-05-05 08:18 45.46313 12.53344 36038 ft 431 kts 298°
2026-05-05 08:19 45.49443 12.46039 36047 ft 432 kts 298°
2026-05-05 08:19 45.52571 12.38725 36040 ft 432 kts 298°
2026-05-05 08:20 45.55702 12.31395 36034 ft 432 kts 297°
2026-05-05 08:20 45.58826 12.24054 36034 ft 433 kts 297°
2026-05-05 08:21 45.61950 12.16700 36045 ft 433 kts 297°
2026-05-05 08:21 45.65067 12.09334 36034 ft 434 kts 297°
2026-05-05 08:22 45.68188 12.01944 36031 ft 434 kts 297°
2026-05-05 08:22 45.71311 11.94536 36033 ft 434 kts 297°
2026-05-05 08:23 45.74425 11.87123 36035 ft 435 kts 297°
2026-05-05 08:23 45.77013 11.80943 36048 ft 436 kts 297°
2026-05-05 08:24 45.80134 11.73485 36041 ft 437 kts 297°
2026-05-05 08:24 45.83249 11.66003 36041 ft 437 kts 297°
2026-05-05 08:25 45.86364 11.58513 36037 ft 438 kts 297°
2026-05-05 08:25 45.89484 11.50999 36045 ft 438 kts 297°
2026-05-05 08:26 45.92599 11.43484 36044 ft 438 kts 297°
2026-05-05 08:26 45.95703 11.35958 36046 ft 438 kts 297°
2026-05-05 08:27 45.98798 11.28412 36049 ft 438 kts 297°
2026-05-05 08:27 46.01892 11.20862 36063 ft 438 kts 297°
2026-05-05 08:28 46.04964 11.13350 36080 ft 438 kts 296°
2026-05-05 08:28 46.08021 11.05739 36074 ft 439 kts 296°
2026-05-05 08:29 46.11058 10.98108 36076 ft 439 kts 296°
2026-05-05 08:30 46.15608 10.86649 36068 ft 439 kts 296°
2026-05-05 08:30 46.18645 10.78998 36081 ft 439 kts 296°
2026-05-05 08:31 46.21684 10.71337 36067 ft 439 kts 296°
2026-05-05 08:31 46.24711 10.63676 36057 ft 439 kts 296°
2026-05-05 08:32 46.27732 10.56009 36047 ft 439 kts 295°
2026-05-05 08:32 46.30757 10.48308 36043 ft 439 kts 295°
2026-05-05 08:33 46.33762 10.40620 36045 ft 439 kts 295°
2026-05-05 08:33 46.36768 10.32908 36027 ft 440 kts 295°
2026-05-05 08:34 46.39775 10.25182 36020 ft 440 kts 295°
2026-05-05 08:34 46.42775 10.17446 36014 ft 440 kts 295°
2026-05-05 08:35 46.45769 10.09685 36023 ft 441 kts 295°
2026-05-05 08:35 46.49119 10.02220 36008 ft 447 kts 307°
2026-05-05 08:36 46.53258 9.95460 36002 ft 448 kts 307°
2026-05-05 08:36 46.57385 9.88676 36004 ft 449 kts 307°
2026-05-05 08:37 46.61501 9.81857 36001 ft 449 kts 307°
2026-05-05 08:37 46.65597 9.75060 36008 ft 449 kts 307°
2026-05-05 08:38 46.69719 9.68206 35987 ft 450 kts 307°
2026-05-05 08:38 46.73864 9.61321 35961 ft 450 kts 307°
2026-05-05 08:39 46.77986 9.54452 35948 ft 451 kts 307°
2026-05-05 08:39 46.82103 9.47575 35947 ft 451 kts 307°
2026-05-05 08:40 46.86232 9.40660 35940 ft 452 kts 307°
2026-05-05 08:40 46.90368 9.33726 35927 ft 453 kts 306°
2026-05-05 08:41 46.94505 9.26748 35895 ft 453 kts 306°
2026-05-05 08:41 46.98634 9.19745 35912 ft 454 kts 306°
2026-05-05 08:42 47.02762 9.12740 35905 ft 454 kts 306°
2026-05-05 08:42 47.06901 9.05725 35925 ft 455 kts 306°
2026-05-05 08:43 47.11039 8.98696 35904 ft 455 kts 306°
2026-05-05 08:43 47.14997 8.91484 35897 ft 450 kts 297°
2026-05-05 08:44 47.17596 8.83255 35900 ft 442 kts 285°
2026-05-05 08:44 47.19753 8.74778 35903 ft 443 kts 286°
2026-05-05 08:45 47.21907 8.66340 35925 ft 444 kts 286°
2026-05-05 08:45 47.24062 8.57827 35927 ft 443 kts 285°
2026-05-05 08:46 47.26209 8.49314 35921 ft 444 kts 285°
2026-05-05 08:46 47.28354 8.40807 35912 ft 444 kts 285°
2026-05-05 08:47 47.30497 8.32283 35903 ft 444 kts 285°
2026-05-05 08:47 47.32558 8.24030 35915 ft 445 kts 285°
2026-05-05 08:48 47.34679 8.15454 35905 ft 445 kts 285°
2026-05-05 08:48 47.36801 8.06864 35905 ft 446 kts 285°
2026-05-05 08:49 47.38825 7.98626 35906 ft 446 kts 285°
2026-05-05 08:49 47.40943 7.90005 35906 ft 447 kts 285°
2026-05-05 08:50 47.43054 7.81395 35905 ft 446 kts 285°
2026-05-05 08:50 47.45143 7.72818 35897 ft 446 kts 285°
2026-05-05 08:51 47.47077 7.64137 35890 ft 442 kts 279°
2026-05-05 08:51 47.48545 7.55326 35889 ft 442 kts 279°
2026-05-05 08:52 47.49998 7.46614 35925 ft 443 kts 278°
2026-05-05 08:52 47.51470 7.37752 35917 ft 444 kts 278°
2026-05-05 08:53 47.52903 7.29127 35906 ft 444 kts 279°
2026-05-05 08:53 47.54354 7.20354 35893 ft 443 kts 278°
2026-05-05 08:54 47.55797 7.11490 35907 ft 443 kts 278°
2026-05-05 08:54 47.57218 7.02705 35899 ft 444 kts 278°
2026-05-05 08:55 47.58656 6.93818 35896 ft 444 kts 278°
2026-05-05 08:55 47.60092 6.84925 35892 ft 444 kts 278°
2026-05-05 08:56 47.61518 6.76030 35890 ft 444 kts 278°
2026-05-05 08:56 47.62943 6.67118 35904 ft 444 kts 278°
2026-05-05 08:57 47.64353 6.58199 35897 ft 444 kts 278°
2026-05-05 08:57 47.65755 6.49284 35881 ft 444 kts 278°
2026-05-05 08:58 47.67153 6.40367 35881 ft 444 kts 278°
2026-05-05 08:58 47.68542 6.31439 35875 ft 444 kts 278°
2026-05-05 08:59 47.70134 6.22564 35885 ft 446 kts 282°
2026-05-05 08:59 47.72084 6.13791 35882 ft 448 kts 284°
2026-05-05 09:00 47.74062 6.05013 35875 ft 448 kts 283°
2026-05-05 09:00 47.75945 5.96204 35877 ft 447 kts 282°
2026-05-05 09:01 47.77770 5.87376 35886 ft 447 kts 282°
2026-05-05 09:01 47.79601 5.78527 35881 ft 448 kts 283°
2026-05-05 09:02 47.81449 5.69666 35876 ft 448 kts 283°
2026-05-05 09:02 47.82979 5.62316 35873 ft 448 kts 283°
2026-05-05 09:03 47.84808 5.53455 35872 ft 448 kts 282°
2026-05-05 09:03 47.86626 5.44585 35887 ft 448 kts 283°
2026-05-05 09:04 47.88446 5.35699 35878 ft 449 kts 283°
2026-05-05 09:04 47.90512 5.26884 35871 ft 454 kts 292°
2026-05-05 09:05 47.94157 5.19123 35868 ft 463 kts 308°
2026-05-05 09:05 47.98489 5.12012 35867 ft 463 kts 308°
2026-05-05 09:06 48.02812 5.04880 35882 ft 463 kts 309°
2026-05-05 09:06 48.07131 4.97724 35877 ft 464 kts 308°
2026-05-05 09:07 48.11443 4.90549 35868 ft 463 kts 308°
2026-05-05 09:07 48.15884 4.83549 35868 ft 465 kts 313°
2026-05-05 09:08 48.20647 4.76965 35869 ft 466 kts 314°
2026-05-05 09:08 48.25453 4.70440 35892 ft 466 kts 315°
2026-05-05 09:09 48.30240 4.63876 35889 ft 466 kts 314°
2026-05-05 09:09 48.34968 4.57292 35882 ft 465 kts 314°
2026-05-05 09:10 48.39681 4.50631 35878 ft 465 kts 314°
2026-05-05 09:10 48.44403 4.43960 35877 ft 465 kts 314°
2026-05-05 09:11 48.49129 4.37300 35876 ft 465 kts 314°
2026-05-05 09:11 48.53860 4.30623 35893 ft 465 kts 314°
2026-05-05 09:12 48.58575 4.23930 35882 ft 465 kts 314°
2026-05-05 09:12 48.63285 4.17221 35877 ft 465 kts 314°
2026-05-05 09:13 48.68004 4.10492 35867 ft 466 kts 314°
2026-05-05 09:13 48.72718 4.03760 35871 ft 466 kts 314°
2026-05-05 09:14 48.77400 3.97040 35872 ft 466 kts 314°
2026-05-05 09:14 48.82100 3.90283 35870 ft 466 kts 314°
2026-05-05 09:15 48.86801 3.83510 35875 ft 466 kts 313°
2026-05-05 09:15 48.91498 3.76722 35872 ft 466 kts 313°
2026-05-05 09:16 48.96192 3.69911 35882 ft 466 kts 313°
2026-05-05 09:16 49.00877 3.63091 35873 ft 466 kts 313°
2026-05-05 09:17 49.05567 3.56258 35872 ft 465 kts 313°
2026-05-05 09:17 49.10247 3.49435 35895 ft 465 kts 313°
2026-05-05 09:18 49.14921 3.42590 35882 ft 465 kts 313°
2026-05-05 09:18 49.19555 3.35776 35883 ft 465 kts 313°
2026-05-05 09:19 49.24215 3.28913 35887 ft 465 kts 313°
2026-05-05 09:19 49.28867 3.22036 35884 ft 465 kts 313°
2026-05-05 09:20 49.33512 3.15139 35894 ft 464 kts 313°
2026-05-05 09:20 49.38152 3.08252 35907 ft 464 kts 313°
2026-05-05 09:21 49.42790 3.01359 35903 ft 464 kts 313°
2026-05-05 09:21 49.47420 2.94435 35900 ft 464 kts 313°
2026-05-05 09:22 49.52033 2.87507 35907 ft 463 kts 312°
2026-05-05 09:22 49.56643 2.80584 35912 ft 463 kts 312°
2026-05-05 09:23 49.61251 2.73655 35912 ft 462 kts 312°
2026-05-05 09:23 49.65840 2.66713 35925 ft 462 kts 312°
2026-05-05 09:24 49.70422 2.59758 35920 ft 462 kts 312°
2026-05-05 09:24 49.75005 2.52801 35918 ft 461 kts 312°
2026-05-05 09:25 49.79544 2.45894 35919 ft 461 kts 312°
2026-05-05 09:25 49.84110 2.38933 35917 ft 460 kts 312°
2026-05-05 09:26 49.88656 2.31961 35924 ft 460 kts 312°
2026-05-05 09:26 49.93202 2.24975 35937 ft 460 kts 312°
2026-05-05 09:27 49.97735 2.17980 35936 ft 459 kts 312°
2026-05-05 09:27 50.02264 2.10984 35932 ft 458 kts 312°
2026-05-05 09:28 50.06786 2.04001 35935 ft 457 kts 312°
2026-05-05 09:28 50.11292 1.97007 35932 ft 457 kts 311°
2026-05-05 09:29 50.15779 1.89989 35936 ft 457 kts 311°
2026-05-05 09:29 50.20260 1.82966 35954 ft 456 kts 311°
2026-05-05 09:30 50.24739 1.75955 35956 ft 456 kts 311°
2026-05-05 09:30 50.29214 1.68937 35956 ft 455 kts 311°
2026-05-05 09:31 50.33677 1.61903 35629 ft 455 kts 311°
2026-05-05 09:31 50.35903 1.58394 35381 ft 454 kts 311°
2026-05-05 09:31 50.38130 1.54878 35137 ft 454 kts 311°
2026-05-05 09:31 50.40354 1.51356 34893 ft 454 kts 311°
2026-05-05 09:32 50.42573 1.47837 34547 ft 454 kts 311°
2026-05-05 09:32 50.44805 1.44287 33628 ft 460 kts 311°
2026-05-05 09:32 50.47062 1.40685 32619 ft 465 kts 311°
2026-05-05 09:32 50.49334 1.37061 31675 ft 468 kts 311°
2026-05-05 09:33 50.51590 1.33341 30715 ft 472 kts 310°
2026-05-05 09:33 50.53784 1.29529 30149 ft 467 kts 309°
2026-05-05 09:33 50.55916 1.25704 29451 ft 463 kts 309°
2026-05-05 09:33 50.58014 1.21902 28826 ft 457 kts 309°
2026-05-05 09:34 50.60160 1.18215 28186 ft 453 kts 311°
2026-05-05 09:34 50.62348 1.14683 27552 ft 449 kts 313°
2026-05-05 09:34 50.64561 1.11253 26926 ft 445 kts 314°
2026-05-05 09:34 50.66749 1.07912 26314 ft 441 kts 314°
2026-05-05 09:35 50.68965 1.04516 25684 ft 437 kts 314°
2026-05-05 09:35 50.73221 0.97857 24483 ft 431 kts 313°
2026-05-05 09:35 50.75347 0.94466 23880 ft 428 kts 313°
2026-05-05 09:36 50.77403 0.91166 23277 ft 425 kts 313°
2026-05-05 09:36 50.79465 0.87849 22699 ft 420 kts 313°
2026-05-05 09:36 50.81504 0.84574 22164 ft 415 kts 313°
2026-05-05 09:36 50.83525 0.81339 21642 ft 411 kts 313°
2026-05-05 09:37 50.85527 0.78141 21130 ft 407 kts 314°
2026-05-05 09:37 50.87508 0.74972 20615 ft 404 kts 314°
2026-05-05 09:37 50.89470 0.71822 20107 ft 400 kts 314°
2026-05-05 09:37 50.91221 0.68429 19604 ft 395 kts 303°
2026-05-05 09:38 50.92700 0.64783 19111 ft 392 kts 302°
2026-05-05 09:38 50.94141 0.61146 18624 ft 388 kts 301°
2026-05-05 09:38 50.95566 0.57517 18117 ft 385 kts 301°
2026-05-05 09:38 50.96966 0.53928 17566 ft 381 kts 301°
2026-05-05 09:39 50.98349 0.50365 17025 ft 377 kts 301°
2026-05-05 09:39 50.99715 0.46832 16489 ft 373 kts 301°
2026-05-05 09:39 51.01055 0.43349 15875 ft 365 kts 301°
2026-05-05 09:39 51.02365 0.39922 15138 ft 361 kts 301°
2026-05-05 09:40 51.03652 0.36529 14411 ft 356 kts 301°
2026-05-05 09:40 51.04919 0.33168 13661 ft 352 kts 301°
2026-05-05 09:40 51.06168 0.29845 12705 ft 347 kts 301°
2026-05-05 09:40 51.07400 0.26567 11870 ft 340 kts 301°
2026-05-05 09:41 51.08585 0.23417 11368 ft 325 kts 301°
2026-05-05 09:41 51.09750 0.20422 10875 ft 311 kts 308°
2026-05-05 09:41 51.11246 0.18095 10550 ft 294 kts 327°
2026-05-05 09:41 51.13040 0.16677 10258 ft 286 kts 338°
2026-05-05 09:42 51.14885 0.15470 10026 ft 286 kts 338°
2026-05-05 09:42 51.16098 0.14672 9934 ft 286 kts 338°
2026-05-05 09:42 51.17936 0.13461 9805 ft 286 kts 338°
2026-05-05 09:42 51.19660 0.11897 9661 ft 286 kts 317°
2026-05-05 09:43 51.20791 0.09327 9516 ft 286 kts 291°
2026-05-05 09:43 51.21207 0.06223 9371 ft 287 kts 277°
2026-05-05 09:43 51.21528 0.03091 9231 ft 286 kts 288°
2026-05-05 09:43 51.22267 0.00156 9088 ft 285 kts 290°
2026-05-05 09:44 51.22853 -0.02878 8897 ft 286 kts 286°
2026-05-05 09:44 51.23381 -0.05949 8555 ft 287 kts 286°
2026-05-05 09:44 51.23907 -0.09019 8170 ft 287 kts 286°
2026-05-05 09:44 51.24438 -0.12090 7790 ft 287 kts 286°
2026-05-05 09:45 51.24963 -0.15177 7410 ft 287 kts 286°
2026-05-05 09:45 51.25480 -0.18249 7061 ft 287 kts 286°
2026-05-05 09:45 51.25980 -0.21281 6966 ft 277 kts 286°
2026-05-05 09:45 51.26468 -0.24252 6973 ft 277 kts 286°
2026-05-05 09:46 51.26962 -0.27229 6973 ft 277 kts 286°
2026-05-05 09:46 51.27460 -0.30199 6974 ft 277 kts 286°
2026-05-05 09:46 51.27963 -0.33165 6976 ft 277 kts 285°
2026-05-05 09:46 51.28462 -0.36139 6976 ft 277 kts 286°
2026-05-05 09:47 51.28953 -0.39106 6978 ft 277 kts 286°
2026-05-05 09:47 51.29455 -0.42111 6615 ft 283 kts 286°
2026-05-05 09:47 51.29981 -0.45179 6114 ft 289 kts 286°
2026-05-05 09:47 51.30510 -0.48303 5560 ft 294 kts 286°
2026-05-05 09:48 51.31025 -0.51435 5031 ft 288 kts 285°
2026-05-05 09:48 51.31510 -0.54461 4504 ft 281 kts 286°
2026-05-05 09:48 51.31974 -0.57465 3964 ft 276 kts 286°
2026-05-05 09:48 51.32415 -0.60422 3428 ft 271 kts 286°
2026-05-05 09:49 51.32842 -0.63321 3048 ft 262 kts 286°
2026-05-05 09:49 51.33252 -0.66161 2990 ft 258 kts 286°
2026-05-05 09:49 51.33644 -0.68910 2991 ft 243 kts 286°
2026-05-05 09:49 51.34004 -0.71443 2994 ft 233 kts 286°
2026-05-05 09:50 51.34361 -0.73967 2998 ft 233 kts 286°
2026-05-05 09:50 51.34719 -0.76486 2999 ft 232 kts 286°
2026-05-05 09:50 51.35158 -0.78945 2993 ft 227 kts 302°
2026-05-05 09:50 51.36209 -0.80725 2997 ft 219 kts 335°
2026-05-05 09:51 51.37658 -0.81319 2998 ft 216 kts 357°
2026-05-05 09:51 51.39164 -0.81422 2999 ft 217 kts
2026-05-05 09:51 51.40678 -0.81466 2999 ft 217 kts
2026-05-05 09:51 51.42188 -0.81499 2999 ft 217 kts
2026-05-05 09:52 51.43691 -0.81533 3004 ft 216 kts
2026-05-05 09:52 51.45188 -0.81414 2999 ft 214 kts 17°
2026-05-05 09:52 51.46466 -0.80221 3002 ft 215 kts 43°
2026-05-05 09:52 51.47318 -0.78271 3003 ft 216 kts 65°
2026-05-05 09:53 51.47609 -0.75898 3003 ft 221 kts 87°
2026-05-05 09:53 51.47622 -0.73432 3003 ft 220 kts 87°
2026-05-05 09:53 51.47635 -0.70965 2864 ft 222 kts 86°
2026-05-05 09:53 51.47648 -0.68511 2592 ft 216 kts 86°
2026-05-05 09:54 51.47661 -0.66146 2312 ft 207 kts 86°
2026-05-05 09:54 51.47673 -0.63881 2035 ft 200 kts 86°
2026-05-05 09:54 51.47685 -0.61709 1789 ft 189 kts 86°
2026-05-05 09:54 51.47694 -0.59701 1521 ft 169 kts 86°
2026-05-05 09:55 51.47702 -0.57959 1312 ft 145 kts 85°
2026-05-05 09:55 51.47710 -0.56401 1117 ft 136 kts 87°
2026-05-05 09:55 51.47718 -0.54913 936 ft 134 kts 86°
2026-05-05 09:55 51.47726 -0.53408 741 ft 136 kts 85°
2026-05-05 09:56 51.47732 -0.51893 565 ft 136 kts 85°
2026-05-05 09:56 51.47740 -0.50386 351 ft 133 kts 86°
2026-05-05 09:56 51.47741 -0.49884 288 ft 135 kts 85°
2026-05-05 09:58 51.47658 -0.46094 89 ft 6 kts 146°
2026-05-05 09:58 51.47652 -0.46086 87 ft 1 kts 146°
2026-05-05 09:58 51.47641 -0.46075 87 ft 1 kts 146°
2026-05-05 09:58 51.47630 -0.46062 88 ft 3 kts 146°
2026-05-05 09:59 51.47628 -0.46060 88 ft 1 kts 146°
2026-05-05 09:59 51.47623 -0.46055 87 ft 1 kts 146°
2026-05-05 09:59 51.47605 -0.46055 86 ft 5 kts 188°
2026-05-05 09:59 51.47594 -0.46096 88 ft 6 kts 269°
2026-05-05 10:00 51.47594 -0.46196 86 ft 11 kts 270°
2026-05-05 10:00 51.47594 -0.46331 89 ft 14 kts 269°
2026-05-05 10:00 51.47593 -0.46503 86 ft 17 kts 269°
2026-05-05 10:00 51.47592 -0.46691 86 ft 14 kts 270°
2026-05-05 10:01 51.47584 -0.46855 86 ft 11 kts 261°
2026-05-05 10:01 51.47581 -0.46991 90 ft 14 kts 270°
2026-05-05 10:01 51.47581 -0.47165 88 ft 17 kts 270°
2026-05-05 10:01 51.47581 -0.47377 90 ft 21 kts 269°
2026-05-05 10:02 51.47581 -0.47623 90 ft 23 kts 270°
2026-05-05 10:02 51.47575 -0.47831 89 ft 14 kts 249°
2026-05-05 10:02 51.47486 -0.47873 88 ft 15 kts 179°
2026-05-05 10:02 51.47371 -0.47872 90 ft 18 kts 180°
2026-05-05 10:03 51.47235 -0.47872 86 ft 21 kts 180°
2026-05-05 10:03 51.47079 -0.47869 86 ft 24 kts 179°
2026-05-05 10:03 51.46916 -0.47868 86 ft 23 kts 179°
2026-05-05 10:03 51.46852 -0.47846 88 ft 5 kts 102°
2026-05-05 10:04 51.46851 -0.47773 86 ft 8 kts 89°
2026-05-05 10:04 51.46851 -0.47720 86 ft 0 kts 90°